Overview Statistics Trail Chart Weather Telemetry Raw packets
 

This is the latest recevied weather packets stored in our database for station/object OE6JUE. If no packets are shown the sender has not sent any weather packets the latest 10 day(s).

<< 30 31 32 33 34 35 36 >>
Time Temp. Humidity Pressure Rain* Wind** Luminosity Snow
1788482783 18.89° C 70% 1022 hPa 0 mm - - -
1788482483 18.33° C 70% 1022.1 hPa 0 mm - - -
1788482183 18.33° C 71% 1021.9 hPa 0 mm - - -
1788481883 18.89° C 72% 1022 hPa 0 mm - - -
1788481583 18.89° C 71% 1022.1 hPa 0 mm - - -
1788481283 18.89° C 71% 1022 hPa 0 mm - - -
1788480982 19.44° C 71% 1022 hPa 0 mm - - -
1788480683 20° C 68% 1022.2 hPa 0 mm - - -
1788480382 20° C 68% 1022.3 hPa 0 mm - - -
1788480082 19.44° C 65% 1022.2 hPa 85.85 mm - - -
1788479784 20° C 66% 1022.2 hPa 0 mm - - -
1788479483 19.44° C 67% 1022.1 hPa 0 mm - - -
1788479183 19.44° C 70% 1022.2 hPa 0 mm - - -
1788478883 19.44° C 70% 1022.1 hPa 0 mm - - -
1788478583 19.44° C 69% 1022 hPa 0 mm - - -
1788478284 19.44° C 69% 1022.1 hPa 0 mm - - -
1788477982 19.44° C 66% 1022.1 hPa 0 mm - - -
1788477683 19.44° C 66% 1022.1 hPa 0 mm - - -
1788477383 20° C 66% 1022 hPa 0 mm - - -
1788477083 20° C 65% 1022 hPa 0 mm - - -
1788476783 20° C 65% 1022.2 hPa 0 mm - - -
1788476483 20° C 64% 1022.2 hPa 85.85 mm - - -
1788476183 20° C 64% 1022.1 hPa 0 mm - - -
1788475883 20.56° C 63% 1022.3 hPa 0 mm - - -
1788475583 20.56° C 62% 1022.1 hPa 0 mm - - -

* Rain latest hour (hover to see other rain measurements)
** Current wind speed in m/s (hover to see current wind gust speed)